Location: Recife
(8.0585°S, 34.8848°W)
Time: 10:27:46
(UTC-03:00)

Altair - Pass Details

Date: 18 April 2026
Orbit: 1501 x 1682 km, 47.2° (Epoch: 20 May)

Event Time Altitude Azimuth Distance (km) Brightness Sun altitude
Rises 08:41:19 0° 230° (SW) 4,864 9.7 46.4°
Reaches altitude 10° 08:44:30 10° 234° (SW) 3,895 9.3 47.2°
Maximum altitude 08:54:13 56° 309° (NW) 1,942 8.6 49.3°
Drops below altitude 10° 09:04:03 10° 24° (NNE) 3,931 10.3 51.4°
Sets 09:07:18 0° 29° (NNE) 4,911 10.6 52.2°
